[[{"header":{"parameterUnit":"m.s-1","parameterCategory":1,"la1":30.2991,"la2":30.254,"lo1":-89.0895,"lo2":-89.0444,"dy":0.0017,"dx":0.0017,"nx":28,"ny":28,"refTime":"2025-03-28T09:00:00:Z","depth":0,"parameterNumber":2,"parameterNumberName":"U-component_of_WINDS"},"data":[0,0,0,0,0,0,0,0,0,0,0,0,0,0,0,0,0,0,0,0,0,0,0,0,0,0,0,0,0,0,0,0,0,0,0,0,0,0,0,0,0,0,0,0,0,0,0,0,0,0,0,0,0,0,0,0,0,0,-7.8982,-7.8983,0,-7.911,-7.9111,-7.9112,-7.9066,-7.9063,-7.906,-7.9058,-7.9182,-7.9188,-7.9194,0,0,0,0,0,0,0,0,0,0,0,0,0,-7.8693,-7.8699,-7.8982,-7.8983,-7.8985,-7.9109,-7.9111,-7.9113,-7.9067,-7.9063,-7.906,-7.9056,-7.918,-7.9187,-7.9194,0,0,0,0,0,0,0,0,0,0,0,0,0,-7.8819,-7.8701,-7.8982,-7.8977,-7.8978,-7.9109,-7.9111,-7.9113,-7.9067,-7.9063,-7.9059,-7.9055,-7.9178,-7.9186,-7.9195,-7.9336,0,0,-7.9222,-7.9226,0,0,0,0,0,0,0,0,-7.8812,-7.883,-7.8976,-7.8978,-7.8979,-7.9068,-7.9055,-7.9188,-7.9068,-7.9033,-7.9058,-7.9053,-7.9147,-7.9158,-7.9191,-7.9342,-7.9347,-7.9223,-7.9229,-7.9232,-7.9235,0,0,0,0,0,0,0,-7.8804,-7.8824,-7.9032,-7.8978,-7.898,-7.8967,-7.898,-7.908,-7.9112,-7.9036,-7.9033,-7.9049,-7.9147,-7.9183,-7.9194,-7.9349,-7.9223,-7.9231,-7.9236,-7.924,-7.9621,-7.9625,0,0,0,0,0,0,-7.8795,-7.8817,-7.9028,-7.9036,-7.8884,-7.8976,-7.8991,-7.9043,-7.9111,-7.9117,-7.9052,-7.9046,-7.9169,-7.9183,-7.9198,-7.9366,-7.9232,-7.9241,-7.9246,-7.9616,-7.9622,-7.9627,0,0,0,0,0,0,-7.8789,-7.8814,-7.9023,-7.8926,-7.8952,-7.8985,-7.9045,-7.9048,-7.9084,-7.9124,-7.9129,-7.9084,-7.9167,-7.9185,-7.9302,-7.9369,-7.9245,-7.9253,-7.961,-7.9618,-7.9624,-7.9703,0,0,0,0,0,0,-7.8781,-7.8812,-7.8867,-7.8928,-7.8957,-7.9127,-7.9049,-7.9054,-7.91,-7.9093,-7.9154,-7.916,-7.9165,-7.9289,-7.9311,-7.9379,-7.926,-7.9604,-7.9614,-7.9622,-7.9695,-7.9712,-7.9727,0,0,0,0,0,-7.8771,-7.8883,-7.887,-7.8896,-7.9027,-7.9131,-7.9147,-7.9152,-7.9106,-7.916,-7.9186,-7.9158,-7.936,-7.9302,-7.9326,-7.9398,-7.96,-7.9611,-7.9621,-7.9687,-7.9709,-7.9727,0,0,0,0,0,0,-7.8827,-7.8891,-7.8877,-7.9013,-7.9067,-7.9123,-7.9191,-7.9175,-7.9241,-7.9232,-7.9234,-7.9248,-7.9368,-7.9395,-7.9329,-7.9538,-7.9473,-7.9489,-7.9515,-7.9535,-7.9551,-7.954,-7.9267,0,0,0,0,0,-7.8856,-7.8937,-7.8988,-7.9102,-7.9131,-7.9157,-7.9202,-7.9202,-7.9257,-7.9279,-7.9313,-7.9366,-7.9441,-7.949,-7.9562,-7.97,-7.9711,-7.9762,-7.9778,-7.9791,-7.9804,-7.9877,-7.99,-7.9662,-7.9662,-7.9662,0,0,-7.8914,-7.8959,-7.901,-7.9115,-7.9157,-7.9239,-7.9176,-7.9265,-7.9325,-7.9292,-7.9404,-7.9432,-7.9491,-7.9619,-7.9677,-7.9645,-7.9873,-7.9805,-7.9815,-7.982,-7.9891,-7.9913,-7.9933,-7.9669,-7.9668,-7.9667,0,0,-7.9062,-7.9106,-7.9206,-7.925,-7.9316,-7.9333,-7.9357,-7.9417,-7.9434,-7.9548,-7.9524,-7.9595,-7.9725,-7.9768,-7.9807,-7.9975,-7.9951,-7.9999,-8.0082,-8.0153,-8.0172,-8.0189,-8.0246,-8.0267,-8.0012,-8.0012,-8.0012,0,-7.9126,-7.9251,-7.9259,-7.9351,-7.9397,-7.9374,-7.9474,-7.9516,-7.96,-7.9632,-7.9596,-7.9759,-7.9798,-7.9935,-7.9976,-8.001,-8.0035,-7.9989,-8.0169,-8.0186,-8.0201,-8.0256,-8.0278,-8.0017,-8.0017,-8.0016,-8.0016,0,-7.9325,-7.9412,-7.9484,-7.9569,-7.9624,-7.9719,-7.974,-7.9794,-7.9791,-7.9811,-7.9927,-7.9973,-8.0053,-8.0087,-8.0083,-8.0223,-8.0201,-8.0168,-8.0102,-8.0229,-8.028,-8.0301,-8.0025,-8.0023,-8.0021,-8.002,0,0,-7.9507,-7.9598,-7.9624,-7.9662,-7.9734,-7.98,-7.9895,-7.9976,-8.0021,-8.0081,-8.0159,-8.0271,-8.0241,-8.0285,-8.0287,-8.0351,-8.0478,-8.0309,-8.031,-8.0336,-8.0633,-8.0654,-8.0679,-8.0465,-8.0469,-8.0472,-8.0627,0,-7.9658,-7.9826,-7.9837,-7.9987,-8.0067,-8.0048,-8.013,-8.0182,-8.0205,-8.0274,-8.0299,-8.0377,-8.0333,-8.036,-8.0423,-8.0449,-8.0537,-8.0439,-8.0533,-8.0536,-8.0514,-8.0706,-8.0729,-8.0872,-8.0647,-8.0651,-8.0653,0,-7.9856,-7.9925,-8.0084,-8.0145,-8.0179,-8.0253,-8.0327,-8.0396,-8.0454,-8.0466,-8.0518,-8.0511,-8.0606,-8.0541,-8.0671,-8.0604,-8.0644,-8.0663,-8.0669,-8.0674,-8.0599,-8.0712,-8.0919,-8.0939,-8.0685,-8.0683,-8.068,0,-7.9969,-8.0102,-8.0214,-8.0247,-8.0323,-8.0375,-8.0408,-8.0463,-8.0511,-8.0577,-8.0608,-8.0683,-8.0724,-8.0782,-8.0795,-8.0747,-8.0924,-8.086,-8.0934,-8.0933,-8.0968,-8.0965,-8.1179,-8.1001,-8.1001,-8.1,-8.1,0,-8.0135,-8.0232,-8.0265,-8.0334,-8.0442,-8.0455,-8.0561,-8.0591,-8.064,-8.0713,-8.0702,-8.077,-8.0785,-8.0856,-8.0867,-8.0972,-8.0991,-8.1001,-8.1002,-8.1,-8.0998,-8.1023,-8.1011,-8.1006,-8.1005,-8.1004,-8.1003,0,-8.0277,-8.0304,-8.0424,-8.0487,-8.0505,-8.0582,-8.0635,-8.0699,-8.0723,-8.0815,-8.0837,-8.0872,-8.0955,-8.0975,-8.1074,-8.1081,-8.1204,-8.1197,-8.1184,-8.1182,-8.1254,-8.1245,-8.1488,-8.1519,-8.1324,-8.1326,-8.1328,0,-8.0378,-8.0453,-8.0525,-8.0574,-8.061,-8.0689,-8.0739,-8.0755,-8.0807,-8.0881,-8.0937,-8.1019,-8.1085,-8.1218,-8.1251,-8.1326,-8.1319,-8.1399,-8.133,-8.1325,-8.1316,-8.131,-8.1316,-8.141,-8.1413,-8.1414,-8.1416,0,-8.0555,-8.0565,-8.0638,-8.0717,-8.0777,-8.084,-8.0899,-8.0939,-8.0963,-8.1022,-8.1108,-8.116,-8.1262,-8.1342,-8.1419,-8.1451,-8.1437,-8.1439,-8.1459,-8.1455,-8.1443,-8.1447,-8.1216,-8.1431,-8.143,-8.1429,-8.1428,-8.1427,-8.0677,-8.0742,-8.0803,-8.0885,-8.0933,-8.0989,-8.1053,-8.1085,-8.1158,-8.1243,-8.1249,-8.1341,-8.1399,-8.15,-8.1538,-8.1609,-8.1584,-8.1614,-8.1621,-8.1628,-8.1632,-8.1436,-8.1623,-8.1623,-8.1623,-8.1622,-8.1622,0,-8.085,-8.0889,-8.0965,-8.1049,-8.1114,-8.11,-8.1165,-8.1219,-8.1301,-8.1357,-8.1424,-8.1522,-8.1601,-8.1642,-8.172,-8.177,-8.1765,-8.1789,-8.1783,-8.1791,-8.1651,-8.1624,-8.1792,-8.1792,-8.1792,-8.1791,-8.1791,-8.1791,-8.0947,-8.1056,-8.1074,-8.1206,-8.1244,-8.1337,-8.1375,-8.1426,-8.1471,-8.1582,-8.1649,-8.1676,-8.1726,-8.1808,-8.1879,-8.1889,-8.1917,-8.1944,-8.195,-8.1818,-8.18,-8.1784,-8.1758,-8.1951,-8.1951,-8.2082,-8.2084,-8.2085]},{"header":{"parameterUnit":"m.s-1","parameterCategory":1,"la1":30.2991,"la2":30.254,"lo1":-89.0895,"lo2":-89.0444,"dy":0.0017,"dx":0.0017,"nx":28,"ny":28,"refTime":"2025-03-28T09:00:00:Z","depth":0,"parameterNumber":3,"parameterNumberName":"V-component_of_WINDS"},"data":[0,0,0,0,0,0,0,0,0,0,0,0,0,0,0,0,0,0,0,0,0,0,0,0,0,0,0,0,0,0,0,0,0,0,0,0,0,0,0,0,0,0,0,0,0,0,0,0,0,0,0,0,0,0,0,0,0,0,4.8795,4.8796,0,4.8871,4.8872,4.8872,4.8847,4.8845,4.8844,4.8842,4.8916,4.892,4.8923,0,0,0,0,0,0,0,0,0,0,0,0,0,4.8625,4.8629,4.8795,4.8796,4.8797,4.8871,4.8872,4.8873,4.8847,4.8845,4.8843,4.8842,4.8915,4.8919,4.8923,0,0,0,0,0,0,0,0,0,0,0,0,0,4.87,4.863,4.8794,4.8793,4.8794,4.887,4.8872,4.8873,4.8848,4.8845,4.8843,4.8841,4.8914,4.8919,4.8924,4.9006,0,0,4.894,4.8942,0,0,0,0,0,0,0,0,4.8696,4.8706,4.8792,4.8793,4.8794,4.8847,4.8839,4.8917,4.8848,4.8827,4.8842,4.8839,4.8895,4.8901,4.8921,4.9009,4.9012,4.894,4.8944,4.8946,4.8947,0,0,0,0,0,0,0,4.8691,4.8703,4.8825,4.8793,4.8795,4.8788,4.8796,4.8854,4.8874,4.8829,4.8827,4.8837,4.8895,4.8916,4.8923,4.9013,4.894,4.8945,4.8948,4.895,4.9175,4.9177,0,0,0,0,0,0,4.8685,4.8698,4.8822,4.8827,4.8738,4.8793,4.8802,4.8832,4.8873,4.8877,4.8839,4.8835,4.8908,4.8916,4.8925,4.9025,4.8946,4.8951,4.8954,4.9172,4.9175,4.9178,0,0,0,0,0,0,4.8682,4.8697,4.8819,4.8762,4.8777,4.8798,4.8833,4.8835,4.8856,4.8881,4.8884,4.8857,4.8907,4.8918,4.8987,4.9027,4.8953,4.8958,4.9168,4.9173,4.9177,4.9224,0,0,0,0,0,0,4.8677,4.8695,4.8727,4.8763,4.8781,4.888,4.8836,4.8838,4.8866,4.8862,4.8898,4.8902,4.8906,4.8979,4.8992,4.9033,4.8962,4.9165,4.917,4.9175,4.9219,4.923,4.9239,0,0,0,0,0,4.8671,4.8736,4.8729,4.8744,4.8821,4.8882,4.8892,4.8896,4.8869,4.8901,4.8917,4.8901,4.9021,4.8986,4.9,4.9044,4.9162,4.9169,4.9175,4.9215,4.9228,4.9239,0,0,0,0,0,0,4.8701,4.874,4.8733,4.8811,4.8844,4.8878,4.8918,4.8909,4.8949,4.8943,4.8945,4.8954,4.9025,4.9041,4.9002,4.9126,4.9087,4.9097,4.9113,4.9125,4.9135,4.9129,4.8966,0,0,0,0,0,4.8718,4.8765,4.8797,4.8863,4.888,4.8897,4.8923,4.8924,4.8957,4.897,4.8991,4.9023,4.9068,4.9098,4.914,4.9222,4.923,4.9259,4.9269,4.9276,4.9284,4.9331,4.9344,4.9199,4.9199,4.9199,0,0,4.875,4.8778,4.8808,4.887,4.8895,4.8945,4.8908,4.8961,4.8998,4.8978,4.9045,4.9062,4.9098,4.9174,4.9209,4.919,4.9327,4.9285,4.9291,4.9294,4.9339,4.9352,4.9365,4.9203,4.9203,4.9202,0,0,4.8836,4.8862,4.8921,4.8948,4.8988,4.8999,4.9013,4.905,4.9061,4.9128,4.9116,4.9159,4.9236,4.9263,4.9286,4.9386,4.9373,4.94,4.945,4.9495,4.9507,4.9517,4.9554,4.9567,4.9408,4.9408,4.9408,0,4.8872,4.8947,4.8952,4.9008,4.9036,4.9023,4.9083,4.9108,4.9159,4.9179,4.9158,4.9256,4.9279,4.9363,4.9388,4.9407,4.9423,4.9395,4.9505,4.9515,4.9525,4.956,4.9573,4.9411,4.9411,4.941,4.941,0,4.899,4.9042,4.9085,4.9137,4.917,4.9228,4.9241,4.9274,4.9273,4.9286,4.9356,4.9384,4.9433,4.9453,4.9451,4.9537,4.9524,4.9504,4.9465,4.9542,4.9575,4.9588,4.9415,4.9414,4.9413,4.9413,0,0,4.9094,4.9152,4.9167,4.9192,4.9237,4.9277,4.9334,4.9384,4.9413,4.9449,4.9497,4.9565,4.9547,4.9574,4.9575,4.9615,4.9694,4.959,4.9591,4.9609,4.9792,4.9807,4.9823,4.9686,4.9689,4.9691,4.9789,0,4.9185,4.9287,4.9295,4.9387,4.9436,4.9426,4.9476,4.9509,4.9524,4.9567,4.9582,4.9631,4.9603,4.962,4.9659,4.9676,4.9731,4.9669,4.9731,4.9733,4.9723,4.984,4.9856,4.9947,4.9802,4.9804,4.9806,0,4.9303,4.9346,4.9444,4.9484,4.9505,4.955,4.9598,4.9639,4.9677,4.9684,4.9717,4.9713,4.9772,4.9732,4.9814,4.9772,4.9798,4.981,4.9814,4.982,4.9774,4.9849,4.9976,4.9991,4.9826,4.9824,4.9823,0,4.9372,4.9453,4.9523,4.9544,4.9592,4.9625,4.9646,4.9681,4.9712,4.9753,4.9773,4.982,4.9846,4.9883,4.9892,4.9862,4.9974,4.9934,4.9983,4.9982,5.0006,5.0004,5.014,5.0023,5.0022,5.0022,5.0022,0,4.9472,4.9532,4.9555,4.9598,4.9666,4.9674,4.9741,4.976,4.9792,4.9838,4.9832,4.9875,4.9885,4.993,4.9938,5.0005,5.0016,5.0025,5.0026,5.0026,5.0025,5.0042,5.0036,5.0026,5.0025,5.0024,5.0024,0,4.9559,4.9577,4.9652,4.9693,4.9705,4.9753,4.9787,4.9829,4.9844,4.9902,4.9917,4.994,4.9993,5.0007,5.0069,5.0075,5.0155,5.0149,5.0143,5.0143,5.019,5.0186,5.0342,5.0363,5.0232,5.0233,5.0234,0,4.9622,4.9668,4.9715,4.9747,4.9771,4.9821,4.9853,4.9864,4.9897,4.9945,4.9981,5.0034,5.0077,5.0163,5.0184,5.0233,5.023,5.0281,5.0236,5.0235,5.0231,5.0229,5.0234,5.0289,5.0291,5.0292,5.0293,0,4.9732,4.9739,4.9786,4.9838,4.9877,4.9917,4.9955,4.9981,4.9997,5.0035,5.0091,5.0125,5.0191,5.0244,5.0294,5.0315,5.0307,5.0307,5.0321,5.0321,5.0315,5.032,5.0166,5.0303,5.0302,5.0301,5.03,5.03,4.9809,4.9851,4.9892,4.9945,4.9976,5.0013,5.0055,5.0076,5.0123,5.0179,5.0183,5.0244,5.0281,5.0348,5.0372,5.042,5.0404,5.0424,5.0429,5.0434,5.0439,5.0308,5.0429,5.0428,5.0428,5.0428,5.0428,0,4.992,4.9947,4.9996,5.0051,5.0094,5.0085,5.0128,5.0163,5.0218,5.0254,5.0298,5.0363,5.0415,5.0442,5.0494,5.0527,5.0525,5.054,5.0538,5.0544,5.0449,5.0432,5.0542,5.0542,5.0542,5.0542,5.0542,5.0541,4.9983,5.0054,5.0067,5.0154,5.0179,5.024,5.0266,5.03,5.033,5.0404,5.0448,5.0466,5.0499,5.0554,5.0602,5.0608,5.0628,5.0646,5.065,5.0561,5.055,5.0539,5.0523,5.065,5.065,5.0741,5.0742,5.0742]}]]